Location: Marcé
(47.5801°N, 0.3280°W)
Time: 08:12:06
(UTC+01:00)

Vanguard 1 - Pass Details

Date: 08 December 2021
Orbit: 652 x 3830 km, 34.2° (Epoch: 16 January)

Event Time Altitude Azimuth Distance (km) Brightness Sun altitude
Rises 00:27:33 0° 237° (WSW) 6,897 14.3 -64.6°
Enters shadow 00:28:19 - 236° (SW) 6,765 14.2 -64.6°
Exits shadow 01:09:15 19° 101° (ESE) 5,795 13.8 -64.9°
Drops below altitude 10° 01:12:49 10° 97° (E) 6,329 14.1 -64.8°
Sets 01:17:15 0° 93° (E) 7,051 14.5 -64.7°
